ISS (ZARYA) 1 25544U 98067A 25289.20252440 .00012084 00000+0 22595-3 0 9995 2 25544 51.6331 67.3223 0004212 296.3293 63.7263 15.49149277533936 CSS (TIANHE) 1 48274U 21035A 25289.21613197 .00035480 00000+0 39860-3 0 9990 2 48274 41.4666 6.2370 0003298 250.8886 109.1596 15.61887520255041 ISS (NAUKA) 1 49044U 21066A 25288.81546950 .00012353 00000+0 23086-3 0 9994 2 49044 51.6330 69.2378 0004186 294.4755 65.5797 15.49140674230444 FREGAT DEB 1 49271U 11037PF 25289.06870414 .00002261 00000+0 46233-2 0 9991 2 49271 51.6246 9.9634 0909055 98.9773 271.4959 12.33736220194810 CSS (WENTIAN) 1 53239U 22085A 25288.89642211 .00037289 00000+0 41900-3 0 9992 2 53239 41.4666 8.1859 0003285 249.4096 110.6391 15.61865174173842 CSS (MENGTIAN) 1 54216U 22143A 25288.89642211 .00037289 00000+0 41900-3 0 9993 2 54216 41.4666 8.1859 0003285 249.4096 110.6391 15.61865174158649 SOYUZ-MS 27 1 63520U 25072A 25288.81546950 .00012353 00000+0 23086-3 0 9990 2 63520 51.6330 69.2378 0004186 294.4755 65.5797 15.49140674 20200 SHENZHOU-20 (SZ-20) 1 63632U 25082A 25288.89642211 .00037289 00000+0 41900-3 0 9990 2 63632 41.4666 8.1859 0003285 249.4096 110.6391 15.61865174237177 PROGRESS-MS 31 1 64751U 25146A 25288.81546950 .00012353 00000+0 23086-3 0 9999 2 64751 51.6330 69.2378 0004186 294.4755 65.5797 15.49140674 6751 TIANZHOU-9 1 64786U 25149A 25288.89642211 .00037289 00000+0 41900-3 0 9995 2 64786 41.4666 8.1859 0003285 249.4096 110.6391 15.61865174 5115 CREW DRAGON 11 1 65077U 25166A 25288.81546950 .00012353 00000+0 23086-3 0 9993 2 65077 51.6330 69.2378 0004186 294.4755 65.5797 15.49140674 2142 DRAGON CRS-33 1 65304U 25186A 25288.81546950 .00012353 00000+0 23086-3 0 9998 2 65304 51.6330 69.2378 0004186 294.4755 65.5797 15.49140674 110 PROGRESS-MS 32 1 65586U 25204A 25288.81546950 .00012353 00000+0 23086-3 0 9991 2 65586 51.6330 69.2378 0004186 294.4755 65.5797 15.49140674 279 CYGNUS NG-23 1 65616U 25208A 25288.81546950 .00012353 00000+0 23086-3 0 9999 2 65616 51.6330 69.2378 0004186 294.4755 65.5797 15.49140674 228 DRAGONFLY 1 65729U 98067XH 25288.68789506 .00097945 00000+0 13667-2 0 9991 2 65729 51.6315 69.1395 0000896 87.6023 272.5071 15.56088163 4083 1998-067XJ 1 65730U 98067XJ 25288.65838914 .00187168 00000+0 22241-2 0 9993 2 65730 51.6307 68.9415 0006017 326.8981 33.1635 15.59990499 4082 1998-067XK 1 65731U 98067XK 25288.11752011 .00068823 00000+0 10068-2 0 9998 2 65731 51.6323 72.0812 0002209 327.2490 32.8364 15.54961639 3990 RSP-03 1 65732U 98067XL 25287.79253652 .00072164 00000+0 10376-2 0 9994 2 65732 51.6310 73.6591 0002449 323.7003 36.3822 15.55409228 3951 GHS-01 1 65733U 98067XM 25288.74942787 .00106432 00000+0 14636-2 0 9994 2 65733 51.6316 68.8001 0000756 68.2411 291.8661 15.56443812 4108 YOTSUBA-KULOVER 1 65941U 98067XN 25288.42525507 .00060187 00000+0 10159-2 0 9999 2 65941 51.6321 71.1332 0002775 223.5449 136.5321 15.51052422 785 E-KAGAKU-1 1 65942U 98067XP 25288.87589235 .00077245 00000+0 12873-2 0 9995 2 65942 51.6326 68.8918 0003548 262.0077 98.0510 15.51300148 859 BOTAN 1 65943U 98067XQ 25288.42508488 .00058863 00000+0 99215-3 0 9999 2 65943 51.6323 71.1318 0003740 255.7962 104.2611 15.51098333 788